Qianfan Jigui 06-11

operational
NORAD ID: 62795 Int'l Des: 2025-016 Owner: YUANX Country: CN Constellation: qianfan
LEOCIRCULARPOLAR

About Qianfan Jigui 06-11

Description loading...

Live Position

Loading 3D Globe...

Upcoming Passes

Altitude History

Altitude vs Time

uPlot chart will show altitude changes over time

Two-Line Element Set

1 62795U 25016L 25312.80907058 .00000048 00000-0 56118-4 0 9990
2 62795 88.9734 106.5668 0015574 83.1122 277.1800 13.50974794 42663
Epoch: Nov 8, 2025 • Age: 33 hours

Current Status

Altitude 1109.0 km
Velocity 7.29 km/s
Sub-Earth Point -87.16°S, 173.12°W
Launch Date Jan 23, 2025
Age 0.7 years
Type internet

Technical Details

Classification Payload
Mass 267.00 kg
Dry Mass 267.00 kg
Total Mass 267.00 kg
Length 0.30 m
Diameter 3.00 m
Span 10.00 m
Shape Box+pan
Manufacturer SECM
Bus Type Qianfan
Phase Status In Orbit
Owner/State YUANX/CN

Large Constellations

Loading constellations...